Torna al catalogo

COSMOS 1818 COOLANT

AttivoLEO
NORAD 50777·DEBRIS·🇷🇺 Russia

Lanciato Feb 1, 1987 da Baikonur Cosmodrome

Loading…

Prossimi Passaggi (prossime 24 ore)

TLE

AggiornatoSource: Space-Track

Epoca: Sep 13, 2026, 17:53 UTC

1 50777U 87011AS  26256.74524934  .00000551  00000-0  20313-3 0  9995
2 50777  65.0075 262.2741 0020481 271.0168  88.8574 14.40836374120851

Traccia COSMOS 1818 COOLANT in tempo reale con AllMySat

Download on the App Store